Regional Weather Roundup
Issued by NWS

Home | Current Version | Previous Version | Text Only | Print | Product List | Glossary Off
Versions: 1 2 3 4 5 6 7 8 9 10 11 12 13 14 15 16 17 18 19 20 21 22 23 24 25 26 27 28 29 30 31 32 33 34 35 36 37 38 39 40 41 42 43 44 45 46 47 48 49 50

000
ASUS43 KOAX 060610
RWRNE

WEATHER ROUNDUP FOR NEBRASKA
NATIONAL WEATHER SERVICE OMAHA NE
100 AM CDT FRI MAY 06 2016

NOTES: SATELLITE DATA IS BEING USED TO AUGMENT CLOUD COVER ABOVE
       12000 FEET.
       "FAIR" INDICATES FEW OR NO CLOUDS BELOW 12,000 FEET WITH NO
       SIGNIFICANT WEATHER AND/OR OBSTRUCTIONS TO VISIBILITY.

  * THESE STATIONS DO NOT REPORT WEATHER SUCH AS RAIN...SNOW OR FOG.

NEZ001>004-019>022-054>056-060700-
NEBRASKA PANHANDLE

CITY           SKY/WX    TMP DP  RH WIND       PRES   REMARKS
SCOTTSBLUFF    CLOUDY    66  41  40 S7        29.96S
6HR MIN TEMP:  59; 6HR MAX TEMP:  81;

ALLIANCE       CLOUDY    58  47  66 S13       29.97R
6HR MIN TEMP:  53; 6HR MAX TEMP:  77;

CHADRON        CLOUDY    63  43  48 SW8       29.90S
6HR MIN TEMP:  58; 6HR MAX TEMP:  82;

KIMBALL        CLOUDY    55  42  63 S8        30.04S
SIDNEY         CLOUDY    60  43  53 S14       30.02R
6HR MIN TEMP:  59; 6HR MAX TEMP:  80;

$$

NEZ057>060-069>072-079>082-060700-
SOUTHWEST NEBRASKA

CITY           SKY/WX    TMP DP  RH WIND       PRES   REMARKS
NORTH PLATTE   CLOUDY    62  46  55 VRB7      30.00S
6HR MIN TEMP:  60; 6HR MAX TEMP:  78;

IMPERIAL       CLOUDY    61  48  62 S12       30.02R
6HR MIN TEMP:  61; 6HR MAX TEMP:  78;

MCCOOK         CLOUDY    62  46  55 S13       30.02R
6HR MIN TEMP:  62; 6HR MAX TEMP:  77;

OGALLALA       CLOUDY    63  48  58 S16G22    29.99S
$$

NEZ005>010-023>029-035>040-094-060700-
NORTH CENTRAL NEBRASKA

CITY           SKY/WX    TMP DP  RH WIND       PRES   REMARKS
VALENTINE      PTCLDY    66  45  46 SW15      29.91R
6HR MIN TEMP:  66; 6HR MAX TEMP:  84;

AINSWORTH      CLOUDY    65  47  52 S17G24    29.94S
BROKEN BOW     LGT RAIN  62  47  57 S6        30.00R
6HR MIN TEMP:  62; 6HR MAX TEMP:  79; 6HR PCP: TRACE;

O`NEILL        CLEAR     62  48  59 S9        29.96R
ORD            PTCLDY    59  48  67 SW8       29.97S
6HR MIN TEMP:  56; 6HR MAX TEMP:  78;

THEDFORD       CLEAR     65  49  54 S18       29.98R
$$

NEZ041-046>049-061>064-073>077-083>087-060700-
SOUTH CENTRAL NEBRASKA

CITY           SKY/WX    TMP DP  RH WIND       PRES   REMARKS
GRAND ISLAND   CLEAR     61  41  47 S10       30.02S
6HR MIN TEMP:  60; 6HR MAX TEMP:  79;

AURORA         CLEAR     63  40  43 S12G17    30.01F
HASTINGS       CLEAR     60  42  51 S8        30.03S
6HR MIN TEMP:  60; 6HR MAX TEMP:  78;

HEBRON         CLEAR     59  45  59 S8        30.04S
HOLDREGE       CLEAR     58  45  62 S9        30.03R
KEARNEY *      CLEAR     57  43  58 S8        30.02F
YORK           CLEAR     57  43  58 S7        30.03S
$$

NEZ011>018-030>034-042>045-060700-
NORTHEAST NEBRASKA

CITY           SKY/WX    TMP DP  RH WIND       PRES   REMARKS
NORFOLK        CLEAR     62  41  46 S15       29.97F
6HR MIN TEMP:  62; 6HR MAX TEMP:  78;

ALBION         CLEAR     57  44  63 SE5       29.99S
BLAIR          CLEAR     60  43  52 S8        30.00S
COLUMBUS *     CLEAR     63  39  42 S13       30.00F
FREMONT        CLEAR     63  41  44 S9        30.00F
TEKAMAH        CLEAR     55  45  68 S10       29.99S
6HR MIN TEMP:  54; 6HR MAX TEMP:  75;

WAYNE          CLEAR     53  44  70 SW5       29.98S
$$

NEZ050>053-065>068-078-088>093-060700-
SOUTHEAST NEBRASKA

CITY           SKY/WX    TMP DP  RH WIND       PRES   REMARKS
LINCOLN        CLEAR     58  43  57 S3        30.03S
6HR MIN TEMP:  57; 6HR MAX TEMP:  79;

OMAHA EPPLEY   CLEAR     59  47  64 SE8       30.00S
6HR MIN TEMP:  57; 6HR MAX TEMP:  76;

BEATRICE       CLEAR     57  44  62 S6        30.04S
FALLS CITY     CLEAR     58  42  55 S6        30.03S
6HR MIN TEMP:  54; 6HR MAX TEMP:  74;

NEBRASKA CITY  CLEAR     55  41  60 S7        30.03R
PLATTSMOUTH    CLEAR     61  43  51 S9        30.02R
$$

NEZ044-045-051>053-067-060700-
OMAHA AREA

CITY           SKY/WX    TMP DP  RH WIND       PRES   REMARKS
OMAHA EPPLEY   CLEAR     59  47  64 SE8       30.00S
6HR MIN TEMP:  57; 6HR MAX TEMP:  76;

BLAIR          CLEAR     60  43  52 S8        30.00S
FREMONT        CLEAR     63  41  44 S9        30.00F
MILLARD        CLEAR     55  46  71 CALM      30.01S
OFFUTT AFB     CLEAR     51  48  90 S3        30.00S
PLATTSMOUTH    CLEAR     61  43  51 S9        30.02R
WAHOO          FAIR      56  43  61 CALM      30.00F
$$




USA.gov is the U.S. government's official web portal to all federal, state and local government web resources and services.